Flag for United Arab Emirates Weather past 2 weeks in Ras al-Khaimah, Ras al-Khaimah, United Arab Emirates

Now
73 °F

Passing clouds.


Feels Like: 77 °F
Forecast: 53 / 79 °F
Wind: 5 mph from Southwest

Location: Ras Al Khaimah International Airport

Current Time: Dec 25, 2014 at 12:00:01 PM

Latest Report: Dec 25, 2014 at 11:00 AM


Visibility: N/A

Pressure: 30.21 "Hg

Humidity: 57%

Dew point: 57 °F

Location of Ras al-KhaimahLocation

Historic Weather in Ras al-Khaimah — Graph

°F

Ras al-Khaimah temperature yesterday

Maximum temperature yesterday: 79 °F (at 12:00 PM)
Minimum temperature yesterday: 59 °F (at 3:00 AM)
Average temperature yesterday: 68 °F

Past Weeks' High & Low Weather Summary

 TemperatureHumidityPressure
High86 °F (Dec 10, 1:00 PM)100% (Dec 13, 4:00 AM)30.24 "Hg (Dec 13, 4:00 AM)
Low46 °F (Dec 15, 6:00 AM)14% (Dec 15, 2:00 PM)29.92 "Hg (Dec 21, 4:00 PM)
Average67 °F64%30.08 "Hg
* Reported Dec 10 11:00 AM — Dec 25 11:00 AM, Ras al-Khaimah, Weather by CustomWeather, © 2014

Note: Actual official high and low records may vary slightly from our data, if they occured in-between our weather recording intervals... More about our weather records

Advertising

Ras al-Khaimah weather history for previous 24 hours

 ConditionsComfort  
Time TempWeatherWind HumidityBarometerVisibility
11:00 AM
Dec 25
73 °FPassing clouds.5 mph57%30.21 "HgN/A
10:00 AM72 °FScattered clouds.8 mph61%30.24 "HgN/A
9:00 AM66 °FScattered clouds.9 mph68%30.21 "HgN/A
8:00 AM59 °FPassing clouds.5 mph77%30.18 "HgN/A
7:00 AM59 °FPassing clouds.6 mph77%30.18 "HgN/A
6:00 AM61 °FPassing clouds.6 mph72%30.15 "HgN/A
5:00 AM61 °FPassing clouds.8 mph72%30.15 "HgN/A
4:00 AM61 °FPassing clouds.8 mph72%30.15 "HgN/A
3:00 AM61 °FPassing clouds.8 mph72%30.15 "HgN/A
2:00 AM59 °FClear.8 mph72%30.15 "Hg10 mi
1:00 AM59 °FClear.5 mph72%30.15 "Hg10 mi
12:00 AM61 °FClear.7 mph68%30.15 "Hg10 mi
11:00 PM
Dec 24
63 °FClear.8 mph64%30.18 "Hg10 mi
10:00 PM64 °FClear.6 mph60%30.18 "Hg10 mi
9:00 PM64 °FClear.7 mph60%30.15 "Hg10 mi
8:00 PM66 °FClear.2 mph56%30.15 "Hg10 mi
7:00 PM70 °FClear.3 mph53%30.12 "Hg10 mi
6:00 PM72 °FClear.8 mph50%30.12 "Hg10 mi
5:00 PM75 °FPassing clouds.15 mph44%30.09 "HgN/A
4:00 PM77 °FPassing clouds.15 mph44%30.07 "HgN/A
3:00 PM77 °FPassing clouds.15 mph42%30.07 "HgN/A
2:00 PM79 °FPassing clouds.16 mph42%30.07 "HgN/A
1:00 PM79 °FPassing clouds.16 mph42%30.09 "HgN/A
12:00 PM79 °FPassing clouds.16 mph48%30.12 "HgN/A
Weather by CustomWeather, © 2014

See weather overviewHow to use our weather pages